Wind_Speed
4 4 4 4 5 5 5 5 6 7 7 7 7 8 7 7 7 7 7 7 7 7 7 7 7 7 7 7 7 7 7 7 7 6 6 6 7 7 7 7 8 7 7 7 7 6 7 7 8
5 5 5 5 6 7 6 7 7 8 8 8 8 8 8 7 7 8 8 8 8 8 8 8 8 8 8 8 8 7 7 7 8 8 8 8 8 8 8 8 8 8 8 8 8 8 8 8 9
5 6 6 7 6 7 7 8 8 8 8 8 9 9 9 8 8 9 9 9 9 9 9 9 9 9 9 9 9 9 9 8 8 9 9 9 9 9 9 9 9 9 9 9 9 9 10 10 10
5 6 7 8 7 8 8 8 8 9 9 9 9 9 9 9 9 9 9 10 10 10 10 10 10 10 10 10 10 10 10 10 10 9 9 10 10 10 10 10 10 9 9 9 10 10 10 10 11
6 7 7 8 8 8 8 9 9 9 9 10 10 10 9 10 10 9 10 10 10 11 11 11 11 11 11 10 11 11 11 11 10 10 10 11 11 11 11 10 11 11 10 10 10 10 11 11 11
7 7 7 7 7 8 9 9 10 10 10 10 10 10 9 10 9 9 10 10 10 10 11 11 11 11 12 12 11 11 11 11 12 12 11 11 11 11 11 11 11 12 11 11 11 11 11 11 12
6 7 7 7 8 9 9 10 10 10 10 10 9 8 9 9 9 9 10 10 11 11 12 12 12 12 12 13 12 12 12 12 12 13 12 12 12 12 12 12 13 13 13 12 12 12 12 12 13
8 8 8 8 8 9 9 10 10 10 10 10 9 9 9 8 9 9 9 10 10 11 12 12 12 12 13 13 12 13 13 12 12 13 13 12 13 13 13 14 13 13 13 13 14 14 14 14 14
8 8 8 8 8 8 9 9 8 9 10 9 8 9 9 9 9 9 9 9 10 10 10 11 12 12 12 13 14 14 13 13 13 13 13 13 14 14 14 14 14 14 14 14 14 15 15 15 16
8 8 8 8 8 9 9 9 10 9 9 9 9 9 10 10 10 10 10 10 10 10 11 11 12 12 13 13 13 13 13 13 13 14 14 14 14 15 14 15 15 15 15 15 15 15 16 16 16
8 9 10 10 10 10 10 10 9 10 10 10 10 9 10 11 10 10 10 11 11 11 11 11 11 11 12 13 13 13 14 14 15 15 14 14 15 15 15 16 15 16 16 16 16 16 16 17 17
8 9 9 10 10 10 10 10 10 11 11 10 10 10 10 11 11 11 11 11 12 11 11 11 11 12 13 13 13 14 15 15 15 16 15 15 15 15 15 16 16 16 16 17 17 17 17 17 17
8 9 10 9 9 10 10 10 10 10 11 11 10 10 11 11 11 11 12 12 12 12 12 12 12 13 14 14 14 14 15 15 15 15 15 16 16 16 16 17 18 17 17 18 17 17 17 17 16
9 9 10 9 9 10 10 10 10 10 10 11 11 11 11 11 11 12 12 12 12 13 13 13 13 14 14 14 14 15 15 15 15 15 15 15 16 16 16 17 17 17 17 18 18 18 18 18 17
9 8 8 8 9 9 10 10 10 10 11 12 12 11 12 12 12 12 12 12 12 12 12 13 13 13 13 14 14 14 15 15 15 15 16 16 16 16 17 17 16 16 17 17 17 17 17 18 18
8 8 8 8 8 9 10 10 10 10 11 12 12 12 13 12 12 12 12 13 13 13 13 13 13 14 14 15 15 15 15 15 15 16 16 17 17 16 17 17 17 18 17 17 18 18 18 18 18
8 9 9 9 9 9 10 9 9 10 10 11 12 12 12 12 12 12 12 12 12 13 13 14 14 15 15 15 15 15 15 16 16 17 17 18 17 17 17 18 18 18 17 18 18 18 18 18 18
9 9 9 10 10 10 10 10 9 9 10 10 11 11 12 12 12 12 11 11 13 13 13 14 15 15 15 15 15 15 15 16 17 17 18 18 18 18 18 18 18 18 18 18 18 18 18 18 17
9 9 9 10 11 11 11 10 9 9 9 10 10 10 11 11 11 11 10 11 12 13 13 14 15 15 15 15 15 16 16 17 17 17 18 18 18 18 19 19 18 18 18 18 18 18 18 18 18
9 9 9 8 10 10 11 10 9 9 9 10 10 10 11 11 12 11 11 11 12 13 13 14 15 15 16 16 16 17 17 18 18 18 18 19 19 19 19 19 19 19 19 18 18 18 19 19 19
8 8 9 10 9 9 10 10 10 10 11 11 11 11 11 12 12 13 12 11 12 13 14 15 16 16 16 17 17 18 18 19 19 19 18 19 19 19 18 18 18 19 20 20 19 19 19 20 20
7 7 9 9 9 9 10 11 10 11 11 12 12 12 12 13 13 13 13 13 13 14 15 16 17 17 18 19 19 19 20 20 20 20 19 19 20 19 19 19 19 19 20 21 20 20 19 20 20
8 8 8 8 8 9 9 12 10 11 12 13 12 13 13 13 14 13 14 15 15 16 17 17 18 19 19 19 20 20 21 21 20 20 20 20 20 20 20 20 20 20 21 21 20 20 20 21 21
8 8 8 8 8 9 10 12 12 12 12 13 14 14 13 14 15 15 15 16 16 17 18 19 19 20 21 21 21 22 22 21 21 20 20 20 20 20 20 20 20 21 21 21 21 21 22 22 22
9 8 8 8 9 10 12 12 12 13 13 14 15 15 14 14 15 15 16 17 18 19 19 20 20 21 22 22 22 22 22 21 21 21 21 21 21 21 21 21 21 22 22 22 22 22 23 22 22
10 9 8 9 10 11 11 13 13 13 14 16 16 16 16 17 16 17 18 19 20 20 21 21 21 22 23 23 22 22 22 21 21 22 22 21 21 21 21 22 22 22 23 23 23 23 23 22 22
10 9 8 11 10 11 12 13 15 15 15 16 17 17 18 17 18 18 18 19 20 21 21 22 22 23 23 23 23 22 22 22 22 22 23 23 23 22 22 22 22 23 23 23 23 22 22 22 22
10 9 10 11 12 12 13 14 14 16 17 17 18 18 18 18 19 19 19 20 21 21 22 23 23 24 24 23 23 23 23 23 23 22 22 22 23 23 23 22 22 23 23 23 23 22 22 22 22
11 11 11 11 12 13 14 15 15 17 19 20 20 19 19 19 20 21 21 21 22 22 23 24 24 24 24 24 24 24 24 24 23 23 23 23 23 23 23 23 23 22 23 24 23 22 22 23 22
13 13 12 12 12 14 16 17 16 19 20 20 21 21 21 21 21 22 22 22 22 23 23 23 24 24 25 25 25 24 24 24 24 23 23 23 23 23 24 24 24 24 24 23 23 23 23 23 23
Wind_Direction
250 250 250 251 260 253 252 258 257 258 256 257 255 257 260 263 259 256 254 247 245 249 253 252 256 257 254 254 252 263 268 264 260 258 258 255 255 259 265 265 264 266 267 271 270 266 268 272 272
252 249 246 246 256 258 263 263 261 260 258 255 255 259 260 261 258 258 256 253 252 253 254 255 256 258 258 259 262 262 265 267 263 262 262 260 261 263 266 268 269 270 269 268 271 272 271 274 274
256 251 249 247 258 264 262 262 262 261 257 253 253 258 260 260 258 258 257 256 255 256 257 259 261 262 262 263 267 265 266 269 266 266 268 267 267 265 266 271 274 272 270 270 273 273 273 273 273
265 254 251 248 257 262 263 265 262 263 260 257 256 255 256 261 264 263 262 260 258 259 260 261 263 267 266 266 267 265 264 268 271 270 270 269 270 272 268 269 268 270 274 276 278 275 275 276 275
263 250 251 251 257 261 263 268 271 267 262 261 261 257 256 260 262 264 263 263 260 260 261 261 263 267 267 267 269 268 266 267 268 269 272 270 271 273 273 271 268 269 270 272 276 275 275 273 272
247 247 249 251 254 262 263 267 266 268 266 263 263 262 256 258 259 260 262 263 263 263 263 263 264 266 268 269 269 270 268 267 267 268 271 272 273 272 273 275 270 271 275 273 270 271 274 274 273
247 246 248 251 255 261 264 268 266 269 268 267 266 263 260 260 259 261 265 266 267 266 264 263 265 265 267 270 271 272 270 269 268 269 269 269 273 275 276 277 277 276 274 274 274 271 275 277 278
252 253 256 254 257 266 265 267 264 268 270 267 262 261 263 263 264 266 270 269 268 270 268 266 266 266 267 268 270 272 273 272 272 270 269 268 270 274 278 279 279 277 275 276 276 276 278 279 282
257 258 262 263 260 270 275 274 272 271 269 267 264 264 266 267 267 270 272 272 272 275 276 274 270 269 269 271 271 272 274 273 272 272 272 271 270 271 274 276 276 277 276 275 276 279 281 283 284
262 268 271 272 273 273 283 283 278 275 272 266 266 264 266 268 269 273 274 273 273 275 278 281 280 277 276 274 274 274 273 272 273 274 272 272 272 271 272 274 274 275 275 275 276 278 280 282 284
266 271 273 276 277 279 283 284 280 280 279 276 274 272 272 274 276 280 283 282 283 285 286 288 287 287 283 278 276 276 276 273 273 274 272 272 273 272 273 274 274 275 275 276 277 277 279 282 284
269 274 274 275 276 276 279 280 279 279 279 277 275 277 278 279 280 281 283 281 281 283 287 287 286 287 288 287 283 279 278 276 274 274 276 275 274 274 273 272 273 274 276 277 278 280 280 280 282
271 276 277 279 278 274 278 277 276 278 282 275 276 276 278 281 283 282 281 281 281 280 283 285 286 287 288 286 285 284 282 279 276 276 278 277 276 275 274 272 274 275 276 278 279 280 280 281 282
271 275 277 278 279 276 275 277 278 274 278 277 274 276 276 280 285 286 284 282 281 282 284 284 285 286 289 289 287 287 285 282 279 278 278 279 278 278 280 278 278 277 276 278 279 280 281 281 282
271 275 278 280 283 284 281 275 275 274 274 276 276 276 277 279 283 286 287 283 282 283 285 285 284 287 290 291 290 288 286 284 284 282 280 280 280 279 280 280 279 279 278 278 280 281 282 281 282
276 279 279 281 286 290 288 284 281 279 274 275 275 276 278 280 282 284 285 283 280 281 284 287 285 287 291 292 290 288 286 285 285 284 282 281 281 280 280 279 278 278 278 278 280 282 282 281 282
275 278 282 282 285 288 287 286 283 281 278 278 280 280 280 280 280 282 283 284 284 283 283 287 289 290 291 292 291 287 285 284 284 284 283 280 280 280 280 280 278 278 278 278 279 282 283 283 283
270 276 283 286 286 286 286 286 287 288 286 282 285 283 280 281 281 281 282 285 288 286 286 289 291 292 291 291 290 290 290 287 285 285 284 280 277 279 280 280 278 277 278 279 279 279 281 282 283
268 270 275 280 283 286 287 288 290 292 290 288 288 288 285 284 284 282 282 286 291 291 289 290 291 291 291 290 291 292 292 290 288 286 285 282 280 280 280 280 280 277 278 280 279 279 279 278 280
267 273 279 280 281 287 287 287 291 292 289 287 292 292 289 286 281 281 283 286 290 294 295 293 291 291 291 291 291 291 291 290 289 287 286 284 281 281 281 280 280 277 277 279 279 280 280 277 278
270 276 279 280 283 288 291 290 290 290 290 286 287 287 286 288 282 281 284 289 292 295 293 293 293 292 291 292 293 295 294 291 290 288 287 284 280 280 280 281 282 280 277 278 279 280 280 280 280
269 275 281 286 283 287 295 294 291 288 289 288 286 286 284 284 288 288 285 291 291 293 296 296 294 293 291 292 293 295 294 292 288 287 285 284 283 281 282 282 282 282 281 281 280 280 279 280 280
269 270 280 290 290 287 295 298 293 288 287 288 289 286 283 283 286 286 288 291 294 294 294 295 295 295 293 293 293 295 294 290 288 287 286 286 285 282 282 283 282 282 283 283 282 282 281 280 281
275 276 280 289 289 291 290 293 296 289 287 286 284 283 281 282 284 285 288 290 293 293 293 294 293 292 291 292 293 294 294 292 290 290 288 285 283 282 281 282 282 282 282 284 283 282 282 282 282
276 285 285 289 288 285 285 288 296 296 289 289 287 286 282 282 287 288 289 291 292 294 296 294 294 294 293 293 294 295 295 294 291 289 287 285 283 282 282 281 281 282 283 285 284 283 282 282 282
282 279 282 277 280 284 282 286 293 298 296 291 287 286 287 285 287 288 289 291 294 295 296 296 295 295 295 294 294 295 295 293 291 289 287 285 282 281 282 283 282 283 284 284 285 284 282 281 281
282 274 277 281 284 288 287 288 293 296 300 294 288 287 288 288 290 292 292 293 294 295 295 296 295 296 296 294 293 293 293 293 291 290 287 285 283 282 282 281 283 284 285 285 286 284 283 282 280
280 272 274 277 282 288 292 289 291 296 295 296 291 291 291 292 293 293 293 294 294 294 295 295 295 294 296 295 294 293 293 291 290 290 288 286 284 282 281 281 282 283 284 284 284 283 283 283 281
277 274 280 279 279 288 291 290 292 294 295 292 291 291 290 292 294 294 293 295 296 295 294 294 295 297 296 295 294 293 292 290 288 288 287 286 284 282 280 282 283 283 284 284 284 283 281 281 280
279 277 278 284 281 282 286 290 291 293 292 291 289 290 291 292 292 293 295 296 296 296 297 296 296 296 296 295 293 291 290 289 287 287 287 286 285 284 281 282 282 283 284 284 282 282 281 280 278
Height
5857 5858 5859 5860 5860 5860 5859 5860 5860 5860 5861 5861 5862 5862 5863 5864 5865 5867 5866 5865 5865 5866 5866 5866 5866 5867 5867 5867 5867 5867 5867 5867 5867 5868 5868 5868 5868 5868 5868 5868 5869 5868 5868 5868 5868 5868 5868 5868 5868
5857 5857 5858 5859 5859 5858 5859 5859 5859 5859 5860 5860 5861 5862 5862 5863 5863 5864 5863 5864 5864 5865 5865 5865 5865 5866 5866 5866 5866 5866 5866 5866 5866 5867 5867 5867 5867 5867 5867 5867 5867 5867 5867 5867 5867 5867 5867 5867 5867
5856 5856 5858 5858 5857 5858 5858 5858 5858 5858 5859 5859 5860 5861 5862 5862 5862 5862 5862 5862 5863 5863 5863 5864 5864 5864 5864 5865 5865 5865 5865 5865 5865 5865 5865 5865 5865 5866 5866 5866 5866 5866 5866 5866 5866 5865 5865 5865 5865
5854 5855 5856 5856 5856 5856 5857 5856 5857 5857 5858 5858 5859 5860 5860 5860 5861 5861 5861 5861 5862 5862 5862 5862 5862 5863 5863 5863 5863 5863 5863 5863 5864 5864 5864 5864 5864 5864 5864 5864 5864 5864 5864 5864 5864 5864 5863 5864 5863
5853 5853 5854 5854 5855 5855 5855 5855 5855 5856 5856 5857 5857 5858 5858 5859 5859 5859 5859 5860 5860 5860 5860 5860 5861 5861 5861 5861 5861 5861 5861 5862 5862 5862 5862 5862 5862 5862 5862 5862 5862 5862 5862 5862 5862 5861 5861 5861 5861
5852 5852 5852 5852 5853 5854 5855 5854 5855 5855 5855 5855 5856 5856 5857 5857 5858 5858 5858 5858 5858 5858 5859 5859 5859 5859 5859 5859 5859 5860 5860 5860 5860 5860 5860 5860 5860 5860 5860 5860 5860 5860 5859 5859 5859 5859 5859 5859 5859
5852 5851 5851 5852 5853 5853 5854 5853 5853 5853 5854 5854 5855 5855 5855 5856 5856 5856 5856 5856 5857 5857 5857 5857 5857 5857 5857 5857 5857 5857 5857 5858 5858 5858 5858 5858 5858 5857 5857 5857 5857 5857 5857 5857 5857 5857 5856 5856 5856
5850 5851 5851 5851 5852 5852 5852 5852 5852 5852 5852 5852 5853 5853 5853 5854 5855 5855 5855 5855 5855 5855 5855 5855 5855 5855 5855 5855 5855 5855 5855 5855 5855 5855 5855 5855 5855 5855 5855 5855 5854 5854 5854 5854 5854 5854 5854 5853 5853
5850 5851 5850 5850 5851 5851 5850 5850 5850 5851 5851 5851 5850 5851 5852 5852 5853 5853 5853 5853 5853 5853 5852 5852 5852 5853 5853 5853 5853 5853 5853 5852 5852 5852 5852 5852 5852 5852 5852 5852 5852 5852 5852 5852 5851 5851 5851 5851 5850
5849 5849 5849 5849 5849 5849 5849 5849 5849 5849 5849 5850 5850 5850 5850 5850 5850 5851 5851 5851 5851 5850 5850 5850 5850 5850 5850 5850 5850 5850 5850 5850 5850 5849 5849 5849 5849 5849 5849 5849 5849 5849 5849 5849 5849 5848 5848 5848 5847
5847 5847 5847 5847 5847 5847 5847 5847 5847 5847 5848 5848 5848 5848 5848 5848 5848 5848 5849 5849 5849 5848 5848 5848 5848 5848 5848 5848 5848 5847 5847 5847 5847 5846 5846 5846 5846 5846 5846 5846 5846 5846 5846 5845 5845 5845 5845 5844 5844
5845 5845 5845 5846 5846 5845 5845 5845 5845 5846 5846 5846 5846 5846 5846 5846 5846 5846 5846 5846 5846 5846 5846 5845 5845 5845 5845 5845 5845 5844 5844 5844 5843 5843 5843 5843 5843 5842 5842 5842 5842 5842 5842 5842 5842 5842 5841 5841 5840
5843 5843 5843 5844 5844 5844 5843 5843 5843 5843 5843 5843 5843 5843 5844 5844 5844 5844 5844 5844 5843 5843 5843 5843 5843 5842 5842 5842 5841 5841 5841 5840 5840 5840 5839 5839 5839 5839 5839 5839 5839 5839 5838 5838 5838 5838 5837 5837 5836
5841 5841 5841 5841 5841 5841 5841 5840 5841 5841 5841 5841 5841 5841 5841 5841 5841 5841 5841 5841 5841 5841 5840 5840 5840 5839 5839 5838 5838 5838 5837 5837 5836 5836 5836 5836 5836 5836 5835 5835 5835 5835 5835 5834 5834 5834 5833 5833 5833
5839 5839 5839 5839 5839 5839 5839 5838 5838 5838 5838 5838 5839 5839 5839 5839 5839 5839 5838 5838 5838 5838 5837 5837 5837 5836 5836 5835 5834 5834 5833 5833 5833 5833 5832 5832 5832 5832 5832 5832 5831 5831 5831 5830 5830 5830 5829 5829 5829
5836 5836 5837 5837 5836 5836 5838 5837 5836 5836 5836 5836 5836 5836 5836 5836 5836 5836 5835 5835 5835 5835 5834 5834 5834 5833 5832 5832 5831 5830 5830 5829 5829 5829 5829 5828 5828 5828 5828 5828 5828 5827 5827 5827 5826 5826 5825 5825 5824
5834 5834 5834 5835 5834 5834 5834 5834 5834 5834 5834 5833 5833 5833 5833 5833 5833 5833 5833 5832 5832 5832 5832 5831 5831 5830 5829 5828 5827 5827 5826 5826 5825 5825 5825 5824 5824 5824 5824 5824 5823 5823 5823 5823 5822 5822 5821 5821 5820
5832 5831 5832 5832 5832 5832 5832 5832 5832 5831 5831 5831 5831 5831 5831 5831 5831 5830 5830 5830 5830 5829 5829 5828 5827 5826 5826 5825 5824 5823 5822 5822 5821 5821 5820 5820 5820 5820 5819 5819 5819 5819 5818 5818 5818 5817 5817 5817 5816
5829 5829 5829 5830 5830 5829 5829 5829 5829 5829 5829 5829 5829 5828 5828 5828 5828 5827 5827 5827 5827 5826 5825 5825 5824 5823 5822 5821 5821 5820 5819 5818 5817 5817 5816 5816 5815 5815 5815 5814 5814 5814 5814 5814 5813 5813 5813 5813 5813
5826 5827 5827 5827 5827 5827 5827 5827 5827 5827 5827 5827 5826 5826 5826 5826 5825 5825 5825 5824 5824 5823 5822 5822 5821 5820 5819 5818 5817 5816 5815 5814 5813 5812 5812 5811 5811 5811 5810 5810 5810 5810 5809 5809 5809 5809 5808 5808 5808
5824 5825 5825 5825 5825 5824 5825 5825 5824 5824 5824 5824 5824 5823 5823 5823 5822 5822 5822 5822 5821 5820 5819 5819 5817 5816 5815 5814 5813 5812 5810 5809 5809 5808 5807 5807 5806 5806 5806 5806 5805 5805 5804 5804 5804 5804 5804 5803 5803
5822 5822 5822 5822 5822 5822 5822 5822 5822 5822 5822 5821 5821 5821 5821 5820 5819 5819 5819 5819 5818 5817 5816 5815 5814 5813 5812 5810 5809 5807 5806 5805 5804 5803 5802 5802 5801 5801 5801 5801 5800 5800 5799 5799 5799 5799 5799 5798 5798
5820 5820 5820 5820 5819 5819 5819 5819 5820 5819 5819 5819 5818 5818 5818 5817 5817 5816 5816 5816 5815 5814 5813 5811 5810 5809 5807 5806 5804 5802 5801 5799 5798 5798 5797 5797 5796 5796 5796 5795 5795 5795 5795 5794 5794 5794 5794 5793 5793
5818 5819 5818 5818 5817 5817 5818 5817 5817 5816 5816 5815 5815 5814 5814 5814 5814 5813 5813 5812 5811 5810 5809 5807 5806 5804 5802 5801 5799 5797 5795 5794 5793 5792 5792 5791 5791 5791 5790 5790 5790 5790 5789 5789 5789 5788 5788 5788 5788
5816 5817 5816 5815 5815 5816 5816 5814 5815 5813 5813 5812 5812 5811 5811 5811 5810 5810 5809 5809 5807 5805 5804 5803 5801 5799 5797 5795 5794 5792 5790 5789 5788 5787 5786 5786 5786 5785 5785 5785 5784 5784 5784 5784 5783 5783 5783 5782 5782
5813 5814 5814 5815 5814 5814 5813 5812 5813 5811 5810 5810 5809 5809 5808 5808 5806 5806 5805 5804 5803 5801 5800 5798 5796 5794 5792 5790 5788 5786 5785 5783 5782 5781 5781 5780 5780 5780 5780 5779 5779 5779 5778 5778 5778 5777 5777 5777 5777
5811 5811 5811 5811 5811 5811 5811 5810 5809 5808 5808 5807 5806 5805 5805 5804 5803 5801 5800 5799 5798 5796 5794 5793 5791 5789 5787 5785 5783 5781 5780 5778 5777 5776 5775 5775 5774 5774 5774 5773 5773 5773 5773 5772 5772 5771 5771 5771 5770
5809 5809 5809 5808 5808 5808 5808 5807 5807 5805 5804 5803 5802 5801 5801 5800 5799 5798 5796 5795 5793 5791 5789 5788 5786 5783 5781 5779 5777 5776 5774 5773 5771 5770 5770 5769 5768 5768 5767 5767 5767 5767 5767 5766 5766 5765 5765 5765 5764
5806 5806 5805 5805 5806 5805 5804 5806 5803 5802 5801 5799 5798 5797 5796 5796 5794 5793 5791 5790 5788 5786 5784 5782 5780 5777 5775 5773 5772 5770 5769 5767 5766 5765 5764 5763 5762 5762 5761 5761 5761 5761 5760 5760 5759 5759 5759 5759 5759
5803 5802 5802 5802 5803 5802 5801 5803 5799 5798 5796 5795 5794 5793 5792 5791 5789 5788 5786 5785 5783 5781 5779 5777 5774 5772 5769 5767 5766 5764 5763 5761 5760 5759 5758 5757 5756 5756 5755 5755 5755 5755 5754 5754 5753 5753 5753 5753 5752